Time,TemperatureF,DewpointF,PressureIn,WindDirection,WindDirectionDegrees,WindSpeedMPH,WindSpeedGustMPH,Humidity,HourlyPrecipIn,Conditions,Clouds,dailyrainin,SolarRadiationWatts/m^2,SoftwareType,DateUTC
2013-07-12 00:22:00,62.0,62.0,29.89,ENE,58,1.0,8.0,100,0.00,,,0.00,0.000000,,2013-07-12 07:22:00,
2013-07-12 00:32:00,62.0,62.0,29.89,ENE,58,1.0,8.0,100,0.00,,,0.00,0.000000,,2013-07-12 07:32:00,
2013-07-12 00:43:00,62.0,62.0,29.89,ENE,58,1.0,8.0,100,0.00,,,0.00,0.000000,,2013-07-12 07:43:00,
2013-07-12 00:52:00,62.0,62.0,29.89,ENE,58,1.0,8.0,100,0.00,,,0.00,0.000000,,2013-07-12 07:52:00,
2013-07-12 01:21:00,63.0,63.0,29.89,NW,319,1.0,7.0,100,0.00,,,0.00,0.000000,,2013-07-12 08:21:00,
2013-07-12 01:32:00,63.0,63.0,29.89,NW,319,1.0,7.0,100,0.00,,,0.00,0.000000,,2013-07-12 08:32:00,
2013-07-12 01:42:00,63.0,63.0,29.89,NW,319,1.0,7.0,100,0.00,,,0.00,0.000000,,2013-07-12 08:42:00,
2013-07-12 01:53:00,63.0,63.0,29.89,NW,319,1.0,7.0,100,0.00,,,0.00,0.000000,,2013-07-12 08:53:00,
2013-07-12 02:22:00,61.0,61.0,29.88,NNE,27,2.0,7.0,100,0.00,,,0.00,0.000000,,2013-07-12 09:22:00,
2013-07-12 02:32:00,61.0,61.0,29.88,NNE,27,2.0,7.0,100,0.00,,,0.00,0.000000,,2013-07-12 09:32:00,
2013-07-12 02:42:00,61.0,61.0,29.88,NNE,27,2.0,7.0,100,0.00,,,0.00,0.000000,,2013-07-12 09:42:00,
2013-07-12 02:52:00,61.0,61.0,29.88,NNE,27,2.0,7.0,100,0.00,,,0.00,0.000000,,2013-07-12 09:52:00,
2013-07-12 03:22:00,62.0,62.0,29.88,North,1,4.0,7.0,100,0.00,,,0.00,0.000000,,2013-07-12 10:22:00,
2013-07-12 03:33:00,62.0,62.0,29.88,North,1,4.0,7.0,100,0.00,,,0.00,0.000000,,2013-07-12 10:33:00,
2013-07-12 03:42:00,62.0,62.0,29.88,North,1,4.0,7.0,100,0.00,,,0.00,0.000000,,2013-07-12 10:42:00,
2013-07-12 03:52:00,62.0,62.0,29.88,North,1,4.0,7.0,100,0.00,,,0.00,0.000000,,2013-07-12 10:52:00,
2013-07-12 04:22:00,62.0,62.0,29.88,North,10,4.0,7.0,100,0.00,,,0.00,1.000000,,2013-07-12 11:22:00,
2013-07-12 04:32:00,62.0,62.0,29.88,North,10,4.0,7.0,100,0.00,,,0.00,1.000000,,2013-07-12 11:32:00,
2013-07-12 04:43:00,62.0,62.0,29.88,North,10,4.0,7.0,100,0.00,,,0.00,1.000000,,2013-07-12 11:43:00,
2013-07-12 04:52:00,62.0,62.0,29.88,North,10,4.0,7.0,100,0.00,,,0.00,1.000000,,2013-07-12 11:52:00,
2013-07-12 05:22:00,60.0,60.0,29.89,North,5,5.0,8.0,100,0.00,,,0.00,1.000000,,2013-07-12 12:22:00,
2013-07-12 05:32:00,60.0,60.0,29.89,North,5,5.0,8.0,100,0.00,,,0.00,1.000000,,2013-07-12 12:32:00,
2013-07-12 05:43:00,60.0,60.0,29.89,North,5,5.0,8.0,100,0.00,,,0.00,1.000000,,2013-07-12 12:43:00,
2013-07-12 05:52:00,60.0,60.0,29.89,North,5,5.0,8.0,100,0.00,,,0.00,1.000000,,2013-07-12 12:52:00,
2013-07-12 06:22:00,62.0,62.0,29.89,North,2,5.0,8.0,100,0.00,,,0.00,1.000000,,2013-07-12 13:22:00,
2013-07-12 06:32:00,62.0,62.0,29.89,North,2,5.0,8.0,100,0.00,,,0.00,1.000000,,2013-07-12 13:32:00,
2013-07-12 06:43:00,62.0,62.0,29.89,North,2,5.0,8.0,100,0.00,,,0.00,1.000000,,2013-07-12 13:43:00,
2013-07-12 06:53:00,62.0,62.0,29.89,North,2,5.0,8.0,100,0.00,,,0.00,1.000000,,2013-07-12 13:53:00,
2013-07-12 07:22:00,64.0,64.0,29.90,NW,312,1.0,7.0,100,0.00,,,0.00,39.000000,,2013-07-12 14:22:00,
2013-07-12 07:32:00,64.0,64.0,29.90,NW,312,1.0,7.0,100,0.00,,,0.00,39.000000,,2013-07-12 14:32:00,
2013-07-12 07:43:00,64.0,64.0,29.90,NW,312,1.0,7.0,100,0.00,,,0.00,39.000000,,2013-07-12 14:43:00,
2013-07-12 07:53:00,64.0,64.0,29.90,NW,312,1.0,7.0,100,0.00,,,0.00,39.000000,,2013-07-12 14:53:00,
2013-07-12 08:22:00,65.0,65.0,29.91,WSW,244,3.0,7.0,100,0.00,,,0.00,144.000000,,2013-07-12 15:22:00,
2013-07-12 08:33:00,65.0,65.0,29.91,WSW,244,3.0,7.0,100,0.00,,,0.00,144.000000,,2013-07-12 15:33:00,
2013-07-12 08:43:00,65.0,65.0,29.91,WSW,244,3.0,7.0,100,0.00,,,0.00,144.000000,,2013-07-12 15:43:00,
2013-07-12 08:52:00,65.0,65.0,29.91,WSW,244,3.0,7.0,100,0.00,,,0.00,144.000000,,2013-07-12 15:52:00,
2013-07-12 09:22:00,70.0,66.0,29.90,WSW,249,6.0,7.0,87,0.00,,,0.00,332.000000,,2013-07-12 16:22:00,
2013-07-12 09:32:00,70.0,66.0,29.90,WSW,249,6.0,7.0,87,0.00,,,0.00,332.000000,,2013-07-12 16:32:00,
2013-07-12 09:42:00,70.0,66.0,29.90,WSW,249,6.0,7.0,87,0.00,,,0.00,332.000000,,2013-07-12 16:42:00,
2013-07-12 09:54:00,70.0,66.0,29.90,WSW,249,6.0,7.0,87,0.00,,,0.00,332.000000,,2013-07-12 16:54:00,
2013-07-12 10:34:00,74.0,66.0,29.91,SSW,195,3.0,9.0,77,0.00,,,0.00,392.000000,,2013-07-12 17:34:00,
2013-07-12 10:44:00,74.0,66.0,29.91,SSW,195,3.0,9.0,77,0.00,,,0.00,392.000000,,2013-07-12 17:44:00,
2013-07-12 10:53:00,74.0,66.0,29.91,SSW,195,3.0,9.0,77,0.00,,,0.00,392.000000,,2013-07-12 17:53:00,
2013-07-12 11:24:00,75.0,67.0,29.91,WSW,239,6.0,7.0,76,0.00,,,0.00,771.000000,,2013-07-12 18:24:00,
2013-07-12 11:34:00,75.0,67.0,29.91,WSW,239,6.0,7.0,76,0.00,,,0.00,771.000000,,2013-07-12 18:34:00,
2013-07-12 11:45:00,75.0,67.0,29.91,WSW,239,6.0,7.0,76,0.00,,,0.00,771.000000,,2013-07-12 18:45:00,
2013-07-12 11:53:00,75.0,67.0,29.91,WSW,239,6.0,7.0,76,0.00,,,0.00,771.000000,,2013-07-12 18:53:00,
2013-07-12 12:44:00,75.0,66.0,29.91,WSW,243,7.0,11.0,74,0.00,,,0.00,927.000000,,2013-07-12 19:44:00,
2013-07-12 13:22:00,75.0,66.0,29.91,WSW,246,10.0,12.0,73,0.00,,,0.00,945.000000,,2013-07-12 20:22:00,
2013-07-12 13:43:00,75.0,66.0,29.91,WSW,246,10.0,12.0,73,0.00,,,0.00,945.000000,,2013-07-12 20:43:00,
2013-07-12 13:53:00,75.0,66.0,29.91,WSW,246,10.0,12.0,73,0.00,,,0.00,945.000000,,2013-07-12 20:53:00,
2013-07-12 14:33:00,72.0,63.0,29.89,WSW,249,12.0,14.0,73,0.00,,,0.00,941.000000,,2013-07-12 21:33:00,
2013-07-12 14:43:00,72.0,63.0,29.89,WSW,249,12.0,14.0,73,0.00,,,0.00,941.000000,,2013-07-12 21:43:00,
2013-07-12 14:53:00,72.0,63.0,29.89,WSW,249,12.0,14.0,73,0.00,,,0.00,941.000000,,2013-07-12 21:53:00,
2013-07-12 15:53:00,72.0,62.0,29.88,WSW,249,12.0,17.0,72,0.00,,,0.00,956.000000,,2013-07-12 22:53:00,
2013-07-12 16:22:00,69.0,61.0,29.87,WSW,251,15.0,19.0,77,0.00,,,0.00,889.000000,,2013-07-12 23:22:00,
2013-07-12 16:33:00,69.0,61.0,29.87,WSW,251,15.0,19.0,77,0.00,,,0.00,889.000000,,2013-07-12 23:33:00,
2013-07-12 16:42:00,69.0,61.0,29.87,WSW,251,15.0,19.0,77,0.00,,,0.00,889.000000,,2013-07-12 23:42:00,
2013-07-12 16:53:00,69.0,61.0,29.87,WSW,251,15.0,19.0,77,0.00,,,0.00,889.000000,,2013-07-12 23:53:00,
2013-07-12 17:53:00,69.0,61.0,29.86,WSW,256,13.0,23.0,77,0.00,,,0.00,703.000000,,2013-07-13 00:53:00,
2013-07-12 18:24:00,65.0,62.0,29.84,WSW,258,14.0,24.0,89,0.00,,,0.00,401.000000,,2013-07-13 01:24:00,
2013-07-12 18:34:00,65.0,62.0,29.84,WSW,258,14.0,24.0,89,0.00,,,0.00,401.000000,,2013-07-13 01:34:00,
2013-07-12 18:44:00,65.0,62.0,29.84,WSW,258,14.0,24.0,89,0.00,,,0.00,401.000000,,2013-07-13 01:44:00,
2013-07-12 18:53:00,65.0,62.0,29.84,WSW,258,14.0,24.0,89,0.00,,,0.00,401.000000,,2013-07-13 01:53:00,
2013-07-12 19:22:00,64.0,64.0,29.84,West,264,11.0,22.0,100,0.00,,,0.00,133.000000,,2013-07-13 02:22:00,
2013-07-12 19:35:00,64.0,64.0,29.84,West,264,11.0,22.0,100,0.00,,,0.00,133.000000,,2013-07-13 02:35:00,
2013-07-12 19:44:00,64.0,64.0,29.84,West,264,11.0,22.0,100,0.00,,,0.00,133.000000,,2013-07-13 02:44:00,
2013-07-12 19:53:00,64.0,64.0,29.84,West,264,11.0,22.0,100,0.00,,,0.00,133.000000,,2013-07-13 02:53:00,
2013-07-12 20:24:00,63.0,63.0,29.83,West,271,10.0,23.0,100,0.00,,,0.00,36.000000,,2013-07-13 03:24:00,
2013-07-12 20:44:00,63.0,63.0,29.83,West,271,10.0,23.0,100,0.00,,,0.00,36.000000,,2013-07-13 03:44:00,
2013-07-12 20:54:00,63.0,63.0,29.83,West,271,10.0,23.0,100,0.00,,,0.00,36.000000,,2013-07-13 03:54:00,
2013-07-12 21:22:00,61.0,61.0,29.84,North,359,3.0,20.0,100,0.00,,,0.00,3.000000,,2013-07-13 04:22:00,
2013-07-12 21:32:00,61.0,61.0,29.84,North,359,3.0,20.0,100,0.00,,,0.00,3.000000,,2013-07-13 04:32:00,
2013-07-12 21:43:00,61.0,61.0,29.84,North,359,3.0,20.0,100,0.00,,,0.00,3.000000,,2013-07-13 04:43:00,
2013-07-12 21:52:00,61.0,61.0,29.84,North,359,3.0,20.0,100,0.00,,,0.00,3.000000,,2013-07-13 04:52:00,
2013-07-12 22:42:00,60.0,60.0,29.86,WNW,296,2.0,13.0,100,0.00,,,0.00,0.000000,,2013-07-13 05:42:00,
2013-07-12 22:52:00,60.0,60.0,29.86,WNW,296,2.0,13.0,100,0.00,,,0.00,0.000000,,2013-07-13 05:52:00,
2013-07-12 23:43:00,61.0,61.0,29.88,West,267,4.0,8.0,100,0.00,,,0.00,1.000000,,2013-07-13 06:43:00,
2013-07-12 23:52:00,61.0,61.0,29.88,West,267,4.0,8.0,100,0.00,,,0.00,1.000000,,2013-07-13 06:52:00,